^^
Station Historical Data
 
Daily Summary for July 20, 2018 Units:  Metric    English   Both
« Previous Day
Next Day »
Daily Weekly Monthly Yearly Custom
  Current: High: Low: Average:
Temperature: -9 °C -17.8 °C -10.4 °C -9.1 °C
Dew Point: -9.6 °C -17.8 °C -12.1 °C -10.2 °C
Humidity: 94% Humidity% 72% 88%
Wind Speed: 15km/h 0km/h 0km/h 8.2km/h
Wind Gust: 15.6km/h 0km/h - -
WindEast - - SSE
Pressure: 34340.8 hPa 0 hPa 34290 hPa -
Precipitation: 175.26 mm      
Historical Graphs
 
 
Tabular Data for July 20, 2018
Time Temperature Dew Point Pressure Wind Wind Speed Wind Gust Humidity Rainfall Rate (Hourly) solar Conditions
-17.8 °C -17.8 °C 0 hPa Calm     Humidity% 0 mm SoftwareType W/m2 Conditions
00:04 -9.2 °C -11.4 °C 34469.5 hPa ENE 9 km/h 1.8 km/h 77% 0 mm WeatherDisplay:10.37 W/m2 BKN
00:09 -9.1 °C -11.3 °C 34472.9 hPa NE 9 km/h 4.2 km/h 77% 0 mm WeatherDisplay:10.37 W/m2 BKN
00:14 -9.1 °C -11.2 °C 34472.9 hPa NE 9 km/h 4.2 km/h 78% 0 mm WeatherDisplay:10.37 W/m2 BKN
00:19 -9 °C -11.2 °C 34466.1 hPa East 6 km/h 4.2 km/h 78% 0 mm WeatherDisplay:10.37 W/m2 BKN
00:24 -9 °C -11 °C 34466.1 hPa NE 9 km/h 4.2 km/h 79% 0 mm WeatherDisplay:10.37 W/m2 BKN
00:29 -9.1 °C -11.2 °C 34466.1 hPa NE 20.9 km/h 8 km/h 78% 0 mm WeatherDisplay:10.37 W/m2 BKN
00:34 -9.1 °C -11.2 °C 34469.5 hPa NE 9 km/h 8 km/h 78% 0 mm WeatherDisplay:10.37 W/m2 BKN
00:39 -9.1 °C -11.3 °C 34469.5 hPa NE 15 km/h 4.2 km/h 77% 0 mm WeatherDisplay:10.37 W/m2 BKN
00:44 -9.1 °C -11.4 °C 34469.5 hPa NE 9 km/h 4.2 km/h 76% 0 mm WeatherDisplay:10.37 W/m2 BKN
00:49 -9.1 °C -11.6 °C 34466.1 hPa North 11.9 km/h   75% 0 mm WeatherDisplay:10.37 W/m2 BKN
00:54 -9.1 °C -11.6 °C 34469.5 hPa NE 6 km/h 4.2 km/h 75% 0 mm WeatherDisplay:10.37 W/m2 BKN
00:59 -9.1 °C -11.6 °C 34469.5 hPa North 3.1 km/h   75% 0 mm WeatherDisplay:10.37 W/m2 BKN
01:04 -9.1 °C -11.7 °C 34462.7 hPa East 9 km/h 4.2 km/h 74% 0 mm WeatherDisplay:10.37 W/m2 BKN
01:09 -9.2 °C -11.7 °C 34462.7 hPa SE 6 km/h   74% 0 mm WeatherDisplay:10.37 W/m2 BKN
01:14 -9.2 °C -11.7 °C 34462.7 hPa NE 11.9 km/h 8 km/h 74% 0 mm WeatherDisplay:10.37 W/m2 BKN
01:19 -9.2 °C -11.8 °C 34462.7 hPa East 9 km/h 1.8 km/h 73% 0 mm WeatherDisplay:10.37 W/m2 BKN
01:24 -9.2 °C -11.8 °C 34459.3 hPa ENE 11.9 km/h 1.8 km/h 73% 0 mm WeatherDisplay:10.37 W/m2 BKN
01:29 -9.2 °C -11.8 °C 34455.9 hPa East 9 km/h   73% 0 mm WeatherDisplay:10.37 W/m2 BKN
01:34 -9.2 °C -11.9 °C 34452.6 hPa Calm   4.2 km/h 73% 0 mm WeatherDisplay:10.37 W/m2 BKN
01:39 -9.2 °C -11.9 °C 34452.6 hPa NE 15 km/h 1.8 km/h 73% 0 mm WeatherDisplay:10.37 W/m2 BKN
01:44 -9.2 °C -11.9 °C 34449.2 hPa East 9 km/h 8 km/h 73% 0 mm WeatherDisplay:10.37 W/m2 BKN
01:49 -9.3 °C -11.9 °C 34449.2 hPa East 11.9 km/h 4.2 km/h 73% 0 mm WeatherDisplay:10.37 W/m2 BKN
01:54 -9.3 °C -11.9 °C 34449.2 hPa NW 6 km/h 4.2 km/h 73% 0 mm WeatherDisplay:10.37 W/m2 BKN
01:59 -9.3 °C -12.1 °C 34449.2 hPa East 15 km/h 1.8 km/h 72% 0 mm WeatherDisplay:10.37 W/m2 BKN
02:04 -9.3 °C -12.1 °C 34442.4 hPa East 15 km/h   72% 0 mm WeatherDisplay:10.37 W/m2 BKN
02:09 -9.3 °C -12.1 °C 34442.4 hPa East 20.9 km/h   72% 0 mm WeatherDisplay:10.37 W/m2 BKN
02:14 -9.3 °C -12.1 °C 34442.4 hPa East 17.9 km/h 1.8 km/h 72% 0 mm WeatherDisplay:10.37 W/m2 BKN
02:19 -9.3 °C -12.1 °C 34442.4 hPa East 3.1 km/h   72% 0 mm WeatherDisplay:10.37 W/m2 BKN
02:24 -9.3 °C -12.1 °C 34445.8 hPa SE 3.1 km/h 8 km/h 72% 0 mm WeatherDisplay:10.37 W/m2 BKN
02:29 -9.3 °C -12.1 °C 34442.4 hPa SW 15 km/h 9.8 km/h 72% 0 mm WeatherDisplay:10.37 W/m2 BKN
02:34 -9.3 °C -12.1 °C 34439 hPa East 15 km/h 1.8 km/h 72% 0 mm WeatherDisplay:10.37 W/m2 BKN
02:39 -9.3 °C -12.1 °C 34445.8 hPa East 15 km/h 5.6 km/h 72% 0 mm WeatherDisplay:10.37 W/m2 BKN
02:44 -9.3 °C -12.1 °C 34442.4 hPa East 3.1 km/h   72% 0 mm WeatherDisplay:10.37 W/m2 BKN
02:49 -9.3 °C -12.1 °C 34442.4 hPa NE 9 km/h   72% 0 mm WeatherDisplay:10.37 W/m2 BKN
02:54 -9.2 °C -12 °C 34442.4 hPa East 9 km/h 1.8 km/h 72% 0 mm WeatherDisplay:10.37 W/m2 BKN
02:59 -9.2 °C -12 °C 34439 hPa East 15 km/h 4.2 km/h 72% 0 mm WeatherDisplay:10.37 W/m2 BKN
03:04 -9.2 °C -12 °C 34439 hPa East 20.9 km/h 1.8 km/h 72% 0 mm WeatherDisplay:10.37 W/m2 BKN
03:09 -9.2 °C -12 °C 34439 hPa East 6 km/h   72% 0 mm WeatherDisplay:10.37 W/m2 BKN
03:14 -9.2 °C -11.9 °C 34435.6 hPa East 9 km/h   73% 0 mm WeatherDisplay:10.37 W/m2 BKN
03:19 -9.2 °C -11.9 °C 34435.6 hPa East 3.1 km/h   73% 0 mm WeatherDisplay:10.37 W/m2 BKN
03:24 -9.2 °C -11.9 °C 34435.6 hPa NW 3.1 km/h 8 km/h 73% 0 mm WeatherDisplay:10.37 W/m2 -RA
03:29 -9.2 °C -11.9 °C 34435.6 hPa North 3.1 km/h   73% 0 mm WeatherDisplay:10.37 W/m2 -RA
03:34 -9.2 °C -11.9 °C 34432.2 hPa East 9 km/h   73% 0 mm WeatherDisplay:10.37 W/m2 -RA
03:39 -9.3 °C -11.8 °C 34425.5 hPa NE 6 km/h 5.6 km/h 74% 0 mm WeatherDisplay:10.37 W/m2 -RA
03:44 -9.3 °C -11.8 °C 34432.2 hPa Calm   4.2 km/h 74% 0 mm WeatherDisplay:10.37 W/m2 -RA
03:49 -9.3 °C -11.9 °C 34428.8 hPa East 3.1 km/h   74% 0 mm WeatherDisplay:10.37 W/m2 -RA
03:54 -9.4 °C -11.8 °C 34425.5 hPa East 9 km/h   75% 0 mm WeatherDisplay:10.37 W/m2 -RA
03:59 -9.4 °C -11.9 °C 34425.5 hPa East 6 km/h 5.6 km/h 75% 0 mm WeatherDisplay:10.37 W/m2 -RA
04:04 -9.4 °C -11.8 °C 34422.1 hPa ENE 3.1 km/h 4.2 km/h 76% 0 mm WeatherDisplay:10.37 W/m2 -RA
04:09 -9.5 °C -11.7 °C 34418.7 hPa East 3.1 km/h 5.6 km/h 77% 0 mm WeatherDisplay:10.37 W/m2 -RA
04:14 -9.5 °C -11.7 °C 34418.7 hPa East 9 km/h 1.8 km/h 77% 0 mm WeatherDisplay:10.37 W/m2 -RA
04:19 -9.5 °C -11.7 °C 34415.3 hPa East 9 km/h   77% 0 mm WeatherDisplay:10.37 W/m2 -RA
04:24 -9.6 °C -11.7 °C 34411.9 hPa ENE 9 km/h   78% 0 mm WeatherDisplay:10.37 W/m2 -RA
04:29 -9.6 °C -11.7 °C 34411.9 hPa West 6 km/h 5.6 km/h 78% 0 mm WeatherDisplay:10.37 W/m2 -RA
04:34 -9.6 °C -11.7 °C 34411.9 hPa ENE 6 km/h   78% 7.62 mm WeatherDisplay:10.37 W/m2 -RA
04:39 -9.6 °C -11.6 °C 34408.5 hPa Calm     79% 7.62 mm WeatherDisplay:10.37 W/m2 -RA
04:44 -9.6 °C -11.6 °C 34408.5 hPa East 9 km/h   79% 12.7 mm WeatherDisplay:10.37 W/m2 -RA
04:49 -9.6 °C -11.6 °C 34408.5 hPa ENE 9 km/h 4.2 km/h 79% 12.7 mm WeatherDisplay:10.37 W/m2 -RA
04:54 -9.6 °C -11.5 °C 34408.5 hPa ENE 9 km/h   80% 12.7 mm WeatherDisplay:10.37 W/m2 -RA
04:59 -9.6 °C -11.4 °C 34411.9 hPa East 6 km/h   81% 12.7 mm WeatherDisplay:10.37 W/m2 -RA
05:04 -9.6 °C -11.4 °C 34411.9 hPa East 3.1 km/h   81% 12.7 mm WeatherDisplay:10.37 W/m2 -RA
05:09 -9.7 °C -11.3 °C 34411.9 hPa East 3.1 km/h   82% 12.7 mm WeatherDisplay:10.37 W/m2 -RA
05:14 -9.7 °C -11.3 °C 34408.5 hPa ENE 9 km/h   82% 12.7 mm WeatherDisplay:10.37 W/m2 -RA
05:19 -9.7 °C -11.3 °C 34405.1 hPa ENE 9 km/h   83% 25.4 mm WeatherDisplay:10.37 W/m2 -RA
05:24 -9.7 °C -11.3 °C 34401.8 hPa ENE 3.1 km/h   83% 25.4 mm WeatherDisplay:10.37 W/m2 -RA
05:29 -9.8 °C -11.3 °C 34401.8 hPa ENE 3.1 km/h   84% 25.4 mm WeatherDisplay:10.37 W/m2 -RA
05:34 -9.8 °C -11.3 °C 34398.4 hPa Calm     84% 12.7 mm WeatherDisplay:10.37 W/m2 -RA
05:39 -9.8 °C -11.3 °C 34405.1 hPa East 6 km/h   84% 25.4 mm WeatherDisplay:10.37 W/m2 -RA
05:44 -9.9 °C -11.3 °C 34401.8 hPa Calm     84% 12.7 mm WeatherDisplay:10.37 W/m2 -RA
05:49 -9.9 °C -11.4 °C 34401.8 hPa Calm     84% 25.4 mm WeatherDisplay:10.37 W/m2 -RA
05:54 -9.9 °C -11.4 °C 34401.8 hPa East 3.1 km/h   84% 33.02 mm WeatherDisplay:10.37 W/m2 -RA
05:59 -10 °C -11.4 °C 34398.4 hPa NE 11.9 km/h   85% 38.1 mm WeatherDisplay:10.37 W/m2 -RA
06:04 -10.1 °C -11.3 °C 34398.4 hPa East 3.1 km/h   86% 38.1 mm WeatherDisplay:10.37 W/m2 -RA
06:09 -10.1 °C -11.3 °C 34398.4 hPa East 3.1 km/h   86% 45.72 mm WeatherDisplay:10.37 W/m2 -RA
06:14 -10.1 °C -11.4 °C 34401.8 hPa Calm   4.2 km/h 86% 45.72 mm WeatherDisplay:10.37 W/m2 -RA
06:19 -10.2 °C -11.4 °C 34398.4 hPa North 9 km/h   86% 45.72 mm WeatherDisplay:10.37 W/m2 -RA
06:24 -10.2 °C -11.5 °C 34401.8 hPa Calm     86% 45.72 mm WeatherDisplay:10.37 W/m2 -RA
06:29 -10.2 °C -11.4 °C 34401.8 hPa Calm     87% 45.72 mm WeatherDisplay:10.37 W/m2 -RA
06:34 -10.2 °C -11.4 °C 34398.4 hPa Calm     87% 45.72 mm WeatherDisplay:10.37 W/m2 -RA
06:39 -10.2 °C -11.4 °C 34395 hPa Calm     87% 38.1 mm WeatherDisplay:10.37 W/m2 -RA
06:44 -10.2 °C -11.3 °C 34395 hPa Calm     87% 38.1 mm WeatherDisplay:10.37 W/m2 -RA
06:49 -10.2 °C -11.3 °C 34391.6 hPa SE 9 km/h   87% 33.02 mm WeatherDisplay:10.37 W/m2 -RA
06:54 -10.2 °C -11.3 °C 34391.6 hPa Calm   4.2 km/h 87% 25.4 mm WeatherDisplay:10.37 W/m2 -RA
06:59 -10.2 °C -11.3 °C 34388.2 hPa SW 11.9 km/h 8 km/h 88% 12.7 mm WeatherDisplay:10.37 W/m2 -RA
07:04 -10.2 °C -11.3 °C 34388.2 hPa East 9 km/h 4.2 km/h 88% 12.7 mm WeatherDisplay:10.37 W/m2 -RA
07:09 -10.2 °C -11.3 °C 34384.8 hPa West 20.9 km/h 15.6 km/h 88% 7.62 mm WeatherDisplay:10.37 W/m2 -RA
07:14 -10.2 °C -11.3 °C 34378.1 hPa West 20.9 km/h 11.6 km/h 88% 7.62 mm WeatherDisplay:10.37 W/m2 -RA
07:19 -10.2 °C -11.3 °C 34384.8 hPa NW 23.8 km/h 11.6 km/h 88% 0 mm WeatherDisplay:10.37 W/m2 -RA
07:24 -10.2 °C -11.3 °C 34381.4 hPa South 11.9 km/h 9.8 km/h 88% 0 mm WeatherDisplay:10.37 W/m2 -RA
07:29 -10.3 °C -11.3 °C 34381.4 hPa NW 23.8 km/h 11.6 km/h 88% 0 mm WeatherDisplay:10.37 W/m2 -RA
07:34 -10.3 °C -11.3 °C 34381.4 hPa West 20.9 km/h 15.6 km/h 88% 0 mm WeatherDisplay:10.37 W/m2 -RA
07:39 -10.3 °C -11.3 °C 34374.7 hPa SW 17.9 km/h 19.6 km/h 89% 0 mm WeatherDisplay:10.37 W/m2 -RA
07:44 -10.4 °C -11.4 °C 34374.7 hPa North 26.9 km/h 15.6 km/h 89% 0 mm WeatherDisplay:10.37 W/m2 -RA
07:49 -10.3 °C -11.3 °C 34378.1 hPa NE 17.9 km/h 8 km/h 89% 7.62 mm WeatherDisplay:10.37 W/m2 -RA
07:54 -10.3 °C -11.3 °C 34378.1 hPa South 15 km/h 11.6 km/h 89% 7.62 mm WeatherDisplay:10.37 W/m2 -RA
07:59 -10.3 °C -11.3 °C 34378.1 hPa West 20.9 km/h 15.6 km/h 89% 7.62 mm WeatherDisplay:10.37 W/m2 -RA
08:04 -10.3 °C -11.3 °C 34374.7 hPa SE 20.9 km/h 8 km/h 89% 12.7 mm WeatherDisplay:10.37 W/m2 -RA
08:09 -10.3 °C -11.2 °C 34374.7 hPa NW 15 km/h 9.8 km/h 90% 12.7 mm WeatherDisplay:10.37 W/m2 -RA
08:14 -10.2 °C -11.1 °C 34374.7 hPa SW 6 km/h 4.2 km/h 90% 12.7 mm WeatherDisplay:10.37 W/m2 -RA
08:19 -10.2 °C -11.1 °C 34374.7 hPa West 15 km/h 9.8 km/h 90% 12.7 mm WeatherDisplay:10.37 W/m2 -RA
08:24 -10.2 °C -11.1 °C 34374.7 hPa NW 11.9 km/h 5.6 km/h 90% 25.4 mm WeatherDisplay:10.37 W/m2 -RA
08:29 -10.2 °C -11.1 °C 34374.7 hPa NW 15 km/h 9.8 km/h 90% 25.4 mm WeatherDisplay:10.37 W/m2 -RA
08:34 -10.1 °C -11 °C 34374.7 hPa SW 9 km/h 4.2 km/h 90% 25.4 mm WeatherDisplay:10.37 W/m2 -RA
08:39 -10.1 °C -10.9 °C 34374.7 hPa NW 9 km/h   91% 25.4 mm WeatherDisplay:10.37 W/m2 -RA
08:44 -10.1 °C -10.9 °C 34371.3 hPa SW 11.9 km/h 4.2 km/h 91% 25.4 mm WeatherDisplay:10.37 W/m2 -RA
08:49 -10.1 °C -10.9 °C 34367.9 hPa WSW 11.9 km/h 8 km/h 91% 12.7 mm WeatherDisplay:10.37 W/m2 -RA
08:54 -10 °C -10.9 °C 34364.5 hPa NW 9 km/h 1.8 km/h 90% 12.7 mm WeatherDisplay:10.37 W/m2 -RA
08:59 -9.9 °C -10.8 °C 34364.5 hPa Calm     90% 25.4 mm WeatherDisplay:10.37 W/m2 -RA
09:04 -9.9 °C -10.8 °C 34364.5 hPa West 6 km/h 8 km/h 90% 12.7 mm WeatherDisplay:10.37 W/m2 -RA
09:09 -9.9 °C -10.7 °C 34364.5 hPa SW 15 km/h 5.6 km/h 91% 12.7 mm WeatherDisplay:10.37 W/m2 -RA
09:14 -9.8 °C -10.7 °C 34361.1 hPa NW 6 km/h 1.8 km/h 91% 25.4 mm WeatherDisplay:10.37 W/m2 -RA
09:19 -9.8 °C -10.7 °C 34361.1 hPa West 9 km/h 5.6 km/h 91% 25.4 mm WeatherDisplay:10.37 W/m2 -RA
09:24 -9.8 °C -10.6 °C 34361.1 hPa West 6 km/h 1.8 km/h 91% 25.4 mm WeatherDisplay:10.37 W/m2 -RA
09:29 -9.8 °C -10.6 °C 34361.1 hPa NW 9 km/h   91% 25.4 mm WeatherDisplay:10.37 W/m2 -RA
09:34 -9.8 °C -10.6 °C 34361.1 hPa West 11.9 km/h 4.2 km/h 91% 25.4 mm WeatherDisplay:10.37 W/m2 -RA
09:39 -9.8 °C -10.6 °C 34361.1 hPa Calm   1.8 km/h 91% 25.4 mm WeatherDisplay:10.37 W/m2 -RA
09:44 -9.7 °C -10.5 °C 34361.1 hPa West 9 km/h 9.8 km/h 91% 25.4 mm WeatherDisplay:10.37 W/m2 -RA
09:49 -9.7 °C -10.4 °C 34357.7 hPa East 3.1 km/h   92% 25.4 mm WeatherDisplay:10.37 W/m2 -RA
09:54 -9.7 °C -10.4 °C 34361.1 hPa Calm     92% 33.02 mm WeatherDisplay:10.37 W/m2 -RA
09:59 -9.7 °C -10.4 °C 34357.7 hPa SW 9 km/h 1.8 km/h 92% 25.4 mm WeatherDisplay:10.37 W/m2 -RA
10:04 -9.7 °C -10.4 °C 34357.7 hPa West 11.9 km/h 5.6 km/h 92% 25.4 mm WeatherDisplay:10.37 W/m2 -RA
10:09 -9.6 °C -10.3 °C 34357.7 hPa West 9 km/h   92% 25.4 mm WeatherDisplay:10.37 W/m2 -RA
10:14 -9.6 °C -10.3 °C 34357.7 hPa NW 9 km/h 1.8 km/h 92% 25.4 mm WeatherDisplay:10.37 W/m2 -RA
10:19 -9.6 °C -10.3 °C 34357.7 hPa NW 9 km/h   92% 25.4 mm WeatherDisplay:10.37 W/m2 -RA
10:24 -9.6 °C -10.3 °C 34357.7 hPa East 11.9 km/h   92% 12.7 mm WeatherDisplay:10.37 W/m2 -RA
10:29 -9.6 °C -10.3 °C 34354.4 hPa East 9 km/h 1.8 km/h 92% 12.7 mm WeatherDisplay:10.37 W/m2 -RA
10:34 -9.6 °C -10.2 °C 34354.4 hPa NW 9 km/h 1.8 km/h 93% 12.7 mm WeatherDisplay:10.37 W/m2 -RA
10:39 -9.5 °C -10.1 °C 34351 hPa West 15 km/h 8 km/h 93% 12.7 mm WeatherDisplay:10.37 W/m2 -RA
10:44 -9.5 °C -10.1 °C 34351 hPa West 15 km/h 9.8 km/h 93% 12.7 mm WeatherDisplay:10.37 W/m2 -RA
10:49 -9.5 °C -10.1 °C 34351 hPa SW 15 km/h 11.6 km/h 93% 25.4 mm WeatherDisplay:10.37 W/m2 -RA
10:54 -9.5 °C -10.1 °C 34351 hPa West 17.9 km/h 11.6 km/h 93% 12.7 mm WeatherDisplay:10.37 W/m2 RA
10:59 -9.4 °C -10.2 °C 34351 hPa NW 9 km/h 1.8 km/h 92% 12.7 mm WeatherDisplay:10.37 W/m2 BKN
11:04 -9.4 °C -10.2 °C 34351 hPa West 9 km/h 5.6 km/h 92% 12.7 mm WeatherDisplay:10.37 W/m2 BKN
11:09 -9.4 °C -10.2 °C 34351 hPa SW 9 km/h 8 km/h 92% 12.7 mm WeatherDisplay:10.37 W/m2 BKN
11:14 -9.4 °C -10.1 °C 34351 hPa East 15 km/h 5.6 km/h 92% 7.62 mm WeatherDisplay:10.37 W/m2 BKN
11:19 -9.4 °C -10.1 °C 34351 hPa NW 15 km/h 5.6 km/h 92% 7.62 mm WeatherDisplay:10.37 W/m2 BKN
11:24 -9.4 °C -10 °C 34344.2 hPa NW 15 km/h 8 km/h 93% 12.7 mm WeatherDisplay:10.37 W/m2 -RA
11:29 -9.4 °C -10 °C 34347.6 hPa East 15 km/h 4.2 km/h 93% 12.7 mm WeatherDisplay:10.37 W/m2 -RA
11:34 -9.3 °C -9.9 °C 34347.6 hPa West 15 km/h 9.8 km/h 93% 12.7 mm WeatherDisplay:10.37 W/m2 -RA
11:39 -9.3 °C -9.9 °C 34344.2 hPa West 15 km/h 4.2 km/h 93% 12.7 mm WeatherDisplay:10.37 W/m2 -RA
11:44 -9.3 °C -9.9 °C 34347.6 hPa SW 9 km/h 8 km/h 93% 12.7 mm WeatherDisplay:10.37 W/m2 -RA
11:49 -9.3 °C -9.9 °C 34344.2 hPa WNW 11.9 km/h 8 km/h 93% 7.62 mm WeatherDisplay:10.37 W/m2 -RA
11:54 -9.3 °C -9.9 °C 34344.2 hPa East 15 km/h 4.2 km/h 93% 7.62 mm WeatherDisplay:10.37 W/m2 BKN
11:59 -9.3 °C -9.9 °C 34344.2 hPa NE 15 km/h 1.8 km/h 93% 7.62 mm WeatherDisplay:10.37 W/m2 BKN
12:04 -9.3 °C -9.9 °C 34344.2 hPa SW 9 km/h 9.8 km/h 93% 7.62 mm WeatherDisplay:10.37 W/m2 BKN
12:09 -9.2 °C -9.8 °C 34344.2 hPa NW 11.9 km/h   93% 7.62 mm WeatherDisplay:10.37 W/m2 BKN
12:14 -9.2 °C -9.8 °C 34344.2 hPa West 11.9 km/h 9.8 km/h 93% 7.62 mm WeatherDisplay:10.37 W/m2 BKN
12:19 -9.2 °C -9.8 °C 34344.2 hPa North 9 km/h 5.6 km/h 93% 7.62 mm WeatherDisplay:10.37 W/m2 BKN
12:24 -9.2 °C -9.8 °C 34337.4 hPa Calm   1.8 km/h 93% 0 mm WeatherDisplay:10.37 W/m2 BKN
12:29 -9.2 °C -9.8 °C 34337.4 hPa NW 15 km/h 4.2 km/h 93% 0 mm WeatherDisplay:10.37 W/m2 BKN
12:34 -9.2 °C -9.8 °C 34337.4 hPa West 11.9 km/h 1.8 km/h 93% 0 mm WeatherDisplay:10.37 W/m2 BKN
12:39 -9.2 °C -9.8 °C 34340.8 hPa SE 20.9 km/h 9.8 km/h 93% 0 mm WeatherDisplay:10.37 W/m2 BKN
12:44 -9.1 °C -9.8 °C 34340.8 hPa West 15 km/h 4.2 km/h 93% 0 mm WeatherDisplay:10.37 W/m2 BKN
12:49 -9.1 °C -9.7 °C 34337.4 hPa West 15 km/h 5.6 km/h 94% 0 mm WeatherDisplay:10.37 W/m2 BKN
12:54 -9.1 °C -9.6 °C 34337.4 hPa Calm     94% 0 mm WeatherDisplay:10.37 W/m2 BKN
12:59 -9.1 °C -9.6 °C 34337.4 hPa SE 9 km/h   94% 0 mm WeatherDisplay:10.37 W/m2 BKN
13:04 -9.1 °C -9.6 °C 34337.4 hPa West 9 km/h 4.2 km/h 94% 0 mm WeatherDisplay:10.37 W/m2 BKN
13:09 -9 °C -9.6 °C 34337.4 hPa SSE 11.9 km/h   94% 0 mm WeatherDisplay:10.37 W/m2 BKN
13:14 -9 °C -9.6 °C 34337.4 hPa SW 11.9 km/h 5.6 km/h 94% 0 mm WeatherDisplay:10.37 W/m2 BKN
13:19 -8.9 °C -9.5 °C 34334 hPa SE 9 km/h 1.8 km/h 94% 0 mm WeatherDisplay:10.37 W/m2 BKN
13:24 -8.9 °C -9.5 °C 34334 hPa SW 11.9 km/h 4.2 km/h 94% 0 mm WeatherDisplay:10.37 W/m2 BKN
13:29 -8.9 °C -9.5 °C 34334 hPa Calm     93% 0 mm WeatherDisplay:10.37 W/m2 BKN
13:34 -8.9 °C -9.5 °C 34327.3 hPa NW 9 km/h   93% 0 mm WeatherDisplay:10.37 W/m2 BKN
13:39 -8.9 °C -9.5 °C 34327.3 hPa Calm     93% 0 mm WeatherDisplay:10.37 W/m2 BKN
13:44 -8.8 °C -9.5 °C 34330.7 hPa Calm     93% 0 mm WeatherDisplay:10.37 W/m2 BKN
13:49 -8.8 °C -9.5 °C 34327.3 hPa West 3.1 km/h   93% 0 mm WeatherDisplay:10.37 W/m2 BKN
13:54 -8.8 °C -9.4 °C 34323.9 hPa NE 9 km/h 8 km/h 93% 0 mm WeatherDisplay:10.37 W/m2 BKN
13:59 -8.7 °C -9.3 °C 34323.9 hPa NW 15 km/h 1.8 km/h 93% 0 mm WeatherDisplay:10.37 W/m2 BKN
14:04 -8.7 °C -9.2 °C 34320.5 hPa North 11.9 km/h 4.2 km/h 94% 0 mm WeatherDisplay:10.37 W/m2 BKN
14:09 -8.6 °C -9.1 °C 34320.5 hPa SW 9 km/h   94% 0 mm WeatherDisplay:10.37 W/m2 BKN
14:14 -8.6 °C -9.1 °C 34320.5 hPa NW 15 km/h 1.8 km/h 94% 0 mm WeatherDisplay:10.37 W/m2 BKN
14:19 -8.6 °C -9.1 °C 34320.5 hPa East 11.9 km/h   94% 0 mm WeatherDisplay:10.37 W/m2 BKN
14:24 -8.6 °C -9.1 °C 34317.1 hPa NW 15 km/h 4.2 km/h 94% 0 mm WeatherDisplay:10.37 W/m2 BKN
14:29 -8.6 °C -9.1 °C 34317.1 hPa ESE 15 km/h 1.8 km/h 94% 0 mm WeatherDisplay:10.37 W/m2 BKN
14:34 -8.5 °C -9.1 °C 34317.1 hPa NW 17.9 km/h 1.8 km/h 94% 0 mm WeatherDisplay:10.37 W/m2 BKN
14:39 -8.4 °C -9 °C 34317.1 hPa West 6 km/h   94% 0 mm WeatherDisplay:10.37 W/m2 BKN
14:44 -8.4 °C -9 °C 34320.5 hPa SW 6 km/h   94% 0 mm WeatherDisplay:10.37 W/m2 BKN
14:49 -8.4 °C -8.9 °C 34313.7 hPa South 9 km/h   94% 0 mm WeatherDisplay:10.37 W/m2 BKN
14:54 -8.3 °C -9 °C 34310.3 hPa Calm     93% 0 mm WeatherDisplay:10.37 W/m2 BKN
14:59 -8.3 °C -8.9 °C 34310.3 hPa Calm     93% 0 mm WeatherDisplay:10.37 W/m2 BKN
15:04 -8.3 °C -8.9 °C 34313.7 hPa West 11.9 km/h 1.8 km/h 93% 0 mm WeatherDisplay:10.37 W/m2 BKN
15:09 -8.3 °C -8.9 °C 34310.3 hPa Calm     93% 0 mm WeatherDisplay:10.37 W/m2 BKN
15:14 -8.3 °C -8.9 °C 34310.3 hPa South 9 km/h   93% 0 mm WeatherDisplay:10.37 W/m2 BKN
15:19 -8.3 °C -8.9 °C 34310.3 hPa Calm     93% 0 mm WeatherDisplay:10.37 W/m2 BKN
15:24 -8.3 °C -8.9 °C 34310.3 hPa Calm     93% 0 mm WeatherDisplay:10.37 W/m2 BKN
15:29 -8.3 °C -8.9 °C 34310.3 hPa Calm     93% 0 mm WeatherDisplay:10.37 W/m2 BKN
15:34 -8.3 °C -8.9 °C 34307 hPa Calm     93% 0 mm WeatherDisplay:10.37 W/m2 BKN
15:39 -8.3 °C -8.9 °C 34310.3 hPa Calm     93% 0 mm WeatherDisplay:10.37 W/m2 BKN
15:44 -8.3 °C -8.9 °C 34307 hPa Calm     93% 7.62 mm WeatherDisplay:10.37 W/m2 RA
15:49 -8.3 °C -8.8 °C 34310.3 hPa South 3.1 km/h   94% 7.62 mm WeatherDisplay:10.37 W/m2 RA
15:54 -8.2 °C -8.8 °C 34307 hPa SE 3.1 km/h   94% 7.62 mm WeatherDisplay:10.37 W/m2 -DZ
15:59 -8.2 °C -8.8 °C 34307 hPa SW 3.1 km/h   94% 12.7 mm WeatherDisplay:10.37 W/m2 -DZ
16:04 -8.2 °C -8.8 °C 34307 hPa Calm     94% 12.7 mm WeatherDisplay:10.37 W/m2 -DZ
16:09 -8.3 °C -8.8 °C 34303.6 hPa SW 3.1 km/h 4.2 km/h 94% 12.7 mm WeatherDisplay:10.37 W/m2 -DZ
16:14 -8.3 °C -8.8 °C 34307 hPa SE 3.1 km/h   94% 12.7 mm WeatherDisplay:10.37 W/m2 -DZ
16:19 -8.3 °C -8.8 °C 34303.6 hPa West 15 km/h 5.6 km/h 94% 12.7 mm WeatherDisplay:10.37 W/m2 -DZ
16:24 -8.3 °C -8.8 °C 34300.2 hPa West 9 km/h 4.2 km/h 94% 12.7 mm WeatherDisplay:10.37 W/m2 -DZ
16:29 -8.3 °C -8.8 °C 34296.8 hPa SE 3.1 km/h   94% 12.7 mm WeatherDisplay:10.37 W/m2 -DZ
16:34 -8.3 °C -9 °C 34296.8 hPa Calm     93% 12.7 mm WeatherDisplay:10.37 W/m2 -DZ
16:39 -8.3 °C -9 °C 34296.8 hPa ESE 9 km/h   93% 12.7 mm WeatherDisplay:10.37 W/m2 -DZ
16:44 -8.2 °C -8.8 °C 34300.2 hPa West 9 km/h   94% 7.62 mm WeatherDisplay:10.37 W/m2 -DZ
16:49 -8.2 °C -8.8 °C 34293.4 hPa SE 9 km/h   94% 7.62 mm WeatherDisplay:10.37 W/m2 -DZ
16:54 -8.2 °C -8.7 °C 34293.4 hPa SE 6 km/h   94% 7.62 mm WeatherDisplay:10.37 W/m2 -DZ
16:59 -8.1 °C -8.7 °C 34290 hPa Calm     94% 0 mm WeatherDisplay:10.37 W/m2 -DZ
17:04 -8.1 °C -8.7 °C 34290 hPa Calm     94% 0 mm WeatherDisplay:10.37 W/m2 -DZ
17:09 -8.1 °C -8.7 °C 34290 hPa Calm     94% 0 mm WeatherDisplay:10.37 W/m2 -DZ
17:14 -8.1 °C -8.6 °C 34290 hPa Calm     94% 0 mm WeatherDisplay:10.37 W/m2 -DZ
17:19 -8.1 °C -8.6 °C 34293.4 hPa Calm     94% 0 mm WeatherDisplay:10.37 W/m2 -DZ
17:24 -8.1 °C -8.6 °C 34290 hPa Calm     94% 0 mm WeatherDisplay:10.37 W/m2 BKN
17:29 -8 °C -8.6 °C 34290 hPa Calm     94% 0 mm WeatherDisplay:10.37 W/m2 BKN
17:34 -8 °C -8.6 °C 34290 hPa Calm     94% 0 mm WeatherDisplay:10.37 W/m2 BKN
17:39 -8 °C -8.6 °C 34293.4 hPa Calm     94% 0 mm WeatherDisplay:10.37 W/m2 BKN
17:44 -8 °C -8.6 °C 34290 hPa Calm     94% 0 mm WeatherDisplay:10.37 W/m2 BKN
17:49 -8 °C -8.6 °C 34290 hPa Calm     94% 0 mm WeatherDisplay:10.37 W/m2 BKN
17:54 -8 °C -8.6 °C 34290 hPa Calm     94% 0 mm WeatherDisplay:10.37 W/m2 BKN
17:59 -8 °C -8.6 °C 34293.4 hPa Calm     94% 0 mm WeatherDisplay:10.37 W/m2 BKN
18:04 -8 °C -8.6 °C 34290 hPa NE 9 km/h 1.8 km/h 94% 0 mm WeatherDisplay:10.37 W/m2 BKN
18:09 -8 °C -8.6 °C 34293.4 hPa East 15 km/h 1.8 km/h 94% 0 mm WeatherDisplay:10.37 W/m2 BKN
18:14 -8 °C -8.6 °C 34293.4 hPa Calm     94% 0 mm WeatherDisplay:10.37 W/m2 BKN
18:19 -8 °C -8.6 °C 34293.4 hPa Calm     94% 0 mm WeatherDisplay:10.37 W/m2 BKN
18:24 -8 °C -8.6 °C 34293.4 hPa Calm     94% 0 mm WeatherDisplay:10.37 W/m2 BKN
18:29 -8 °C -8.6 °C 34293.4 hPa East 9 km/h   94% 0 mm WeatherDisplay:10.37 W/m2 BKN
18:34 -8 °C -8.6 °C 34293.4 hPa East 11.9 km/h   94% 0 mm WeatherDisplay:10.37 W/m2 BKN
18:39 -8 °C -8.6 °C 34293.4 hPa East 9 km/h 9.8 km/h 94% 0 mm WeatherDisplay:10.37 W/m2 BKN
18:44 -8.1 °C -8.7 °C 34293.4 hPa ESE 9 km/h 5.6 km/h 93% 0 mm WeatherDisplay:10.37 W/m2 BKN
18:49 -8.1 °C -8.7 °C 34293.4 hPa East 9 km/h 4.2 km/h 93% 0 mm WeatherDisplay:10.37 W/m2 BKN
18:54 -8.1 °C -8.7 °C 34296.8 hPa East 9 km/h 8 km/h 93% 0 mm WeatherDisplay:10.37 W/m2 BKN
18:59 -8.1 °C -8.7 °C 34296.8 hPa ESE 11.9 km/h 4.2 km/h 93% 0 mm WeatherDisplay:10.37 W/m2 BKN
19:04 -8.2 °C -8.8 °C 34296.8 hPa East 15 km/h 5.6 km/h 93% 0 mm WeatherDisplay:10.37 W/m2 BKN
19:09 -8.2 °C -8.8 °C 34296.8 hPa ESE 9 km/h 8 km/h 93% 0 mm WeatherDisplay:10.37 W/m2 BKN
19:14 -8.2 °C -8.8 °C 34300.2 hPa SE 17.9 km/h 8 km/h 93% 0 mm WeatherDisplay:10.37 W/m2 BKN
19:19 -8.2 °C -8.8 °C 34300.2 hPa East 9 km/h 5.6 km/h 93% 0 mm WeatherDisplay:10.37 W/m2 BKN
19:24 -8.2 °C -8.8 °C 34300.2 hPa East 9 km/h   93% 0 mm WeatherDisplay:10.37 W/m2 BKN
19:29 -8.2 °C -8.8 °C 34300.2 hPa East 11.9 km/h 8 km/h 93% 0 mm WeatherDisplay:10.37 W/m2 BKN
19:34 -8.2 °C -8.8 °C 34303.6 hPa East 9 km/h   93% 0 mm WeatherDisplay:10.37 W/m2 BKN
19:39 -8.3 °C -8.9 °C 34307 hPa East 9 km/h 5.6 km/h 93% 0 mm WeatherDisplay:10.37 W/m2 BKN
19:44 -8.3 °C -8.9 °C 34310.3 hPa East 15 km/h   93% 0 mm WeatherDisplay:10.37 W/m2 BKN
19:49 -8.3 °C -8.9 °C 34307 hPa NE 6 km/h 9.8 km/h 93% 0 mm WeatherDisplay:10.37 W/m2 BKN
19:54 -8.3 °C -9 °C 34313.7 hPa SE 15 km/h   93% 0 mm WeatherDisplay:10.37 W/m2 BKN
19:59 -8.3 °C -9 °C 34310.3 hPa ESE 26.9 km/h 9.8 km/h 93% 0 mm WeatherDisplay:10.37 W/m2 BKN
20:04 -8.4 °C -8.9 °C 34310.3 hPa Calm   1.8 km/h 94% 0 mm WeatherDisplay:10.37 W/m2 BKN
20:09 -8.4 °C -9 °C 34313.7 hPa Calm     94% 7.62 mm WeatherDisplay:10.37 W/m2 RA
20:14 -8.4 °C -9 °C 34310.3 hPa East 6 km/h 1.8 km/h 94% 7.62 mm WeatherDisplay:10.37 W/m2 RA
20:19 -8.4 °C -9 °C 34310.3 hPa East 9 km/h   94% 7.62 mm WeatherDisplay:10.37 W/m2 BKN
20:24 -8.5 °C -9.1 °C 34313.7 hPa Calm     94% 7.62 mm WeatherDisplay:10.37 W/m2 BKN
20:29 -8.5 °C -9.1 °C 34320.5 hPa Calm     94% 7.62 mm WeatherDisplay:10.37 W/m2 BKN
20:34 -8.6 °C -9.2 °C 34323.9 hPa NE 6 km/h 4.2 km/h 93% 7.62 mm WeatherDisplay:10.37 W/m2 BKN
20:39 -8.6 °C -9.2 °C 34320.5 hPa SE 3.1 km/h   93% 7.62 mm WeatherDisplay:10.37 W/m2 BKN
20:44 -8.6 °C -9.2 °C 34320.5 hPa Calm     93% 7.62 mm WeatherDisplay:10.37 W/m2 BKN
20:49 -8.6 °C -9.2 °C 34327.3 hPa Calm   4.2 km/h 93% 7.62 mm WeatherDisplay:10.37 W/m2 BKN
20:54 -8.6 °C -9.2 °C 34327.3 hPa East 6 km/h   93% 7.62 mm WeatherDisplay:10.37 W/m2 BKN
20:59 -8.6 °C -9.2 °C 34330.7 hPa East 3.1 km/h   93% 7.62 mm WeatherDisplay:10.37 W/m2 BKN
21:04 -8.7 °C -9.3 °C 34327.3 hPa Calm     93% 7.62 mm WeatherDisplay:10.37 W/m2 BKN
21:09 -8.7 °C -9.3 °C 34330.7 hPa East 9 km/h   93% 0 mm WeatherDisplay:10.37 W/m2 BKN
21:14 -8.7 °C -9.3 °C 34327.3 hPa NE 15 km/h   93% 0 mm WeatherDisplay:10.37 W/m2 BKN
21:19 -8.7 °C -9.3 °C 34327.3 hPa East 9 km/h   93% 0 mm WeatherDisplay:10.37 W/m2 BKN
21:24 -8.7 °C -9.3 °C 34330.7 hPa East 11.9 km/h 1.8 km/h 93% 0 mm WeatherDisplay:10.37 W/m2 BKN
21:29 -8.7 °C -9.3 °C 34330.7 hPa ENE 15 km/h   93% 0 mm WeatherDisplay:10.37 W/m2 BKN
21:34 -8.7 °C -9.3 °C 34327.3 hPa Calm     93% 0 mm WeatherDisplay:10.37 W/m2 BKN
21:39 -8.7 °C -9.3 °C 34330.7 hPa East 6 km/h   93% 0 mm WeatherDisplay:10.37 W/m2 BKN
21:44 -8.8 °C -9.4 °C 34334 hPa NE 3.1 km/h 4.2 km/h 93% 0 mm WeatherDisplay:10.37 W/m2 BKN
21:49 -8.8 °C -9.4 °C 34334 hPa East 15 km/h 5.6 km/h 93% 0 mm WeatherDisplay:10.37 W/m2 BKN
21:54 -8.8 °C -9.4 °C 34337.4 hPa East 3.1 km/h   93% 0 mm WeatherDisplay:10.37 W/m2 BKN
21:59 -8.8 °C -9.4 °C 34334 hPa NE 9 km/h 5.6 km/h 93% 0 mm WeatherDisplay:10.37 W/m2 BKN
22:04 -8.8 °C -9.4 °C 34337.4 hPa NE 9 km/h 4.2 km/h 93% 7.62 mm WeatherDisplay:10.37 W/m2 RA
22:09 -8.8 °C -9.4 °C 34337.4 hPa NW 11.9 km/h 4.2 km/h 93% 7.62 mm WeatherDisplay:10.37 W/m2 RA
22:14 -8.8 °C -9.4 °C 34337.4 hPa NNE 9 km/h 1.8 km/h 93% 7.62 mm WeatherDisplay:10.37 W/m2 BKN
22:19 -8.8 °C -9.4 °C 34337.4 hPa East 3.1 km/h   93% 7.62 mm WeatherDisplay:10.37 W/m2 BKN
22:24 -8.8 °C -9.4 °C 34340.8 hPa East 9 km/h   93% 7.62 mm WeatherDisplay:10.37 W/m2 -DZ
22:29 -8.8 °C -9.5 °C 34340.8 hPa East 11.9 km/h 9.8 km/h 93% 7.62 mm WeatherDisplay:10.37 W/m2 -DZ
22:34 -8.8 °C -9.5 °C 34340.8 hPa SE 9 km/h 4.2 km/h 93% 7.62 mm WeatherDisplay:10.37 W/m2 -DZ
22:39 -8.9 °C -9.5 °C 34340.8 hPa SE 9 km/h 5.6 km/h 93% 7.62 mm WeatherDisplay:10.37 W/m2 -DZ
22:44 -8.9 °C -9.5 °C 34340.8 hPa East 9 km/h   94% 7.62 mm WeatherDisplay:10.37 W/m2 -DZ
22:49 -8.9 °C -9.5 °C 34344.2 hPa SE 20.9 km/h 8 km/h 94% 7.62 mm WeatherDisplay:10.37 W/m2 -DZ
22:54 -9 °C -9.6 °C 34340.8 hPa East 15 km/h 15.6 km/h 94% 7.62 mm WeatherDisplay:10.37 W/m2 -DZ
Earlscliffe, Baily, Howth, Co. Dublin, Ireland
Compliments of Weather Underground - 2.75 mb